View from above orbital plane
|
View from above satellite
|
Ground track
|
The orbit data is extracted from the following two-line orbital elements,
1 23705U 95058B 13139.93825174 -.00000233 00000-0 -96024-4 0 9782
2 23705 071.0233 273.2196 0011177 039.3136 320.8796 14.14964407906524
| Epoch (UTC): | 19 May 2013 22:31:04 |
| Eccentricity: | 0.0011177 |
| inclination: | 71.0233° |
| perigee height: | 834 km |
| apogee height: | 850 km |
| right ascension of ascending node: | 273.2196° |
| argument of perigee: | 39.3136° |
| revolutions per day: | 14.14964407 |
| mean anomaly at epoch: | 320.8796° |
| orbit number at epoch: | 90652 |
The dashed part of the orbit path shows where the satellite is in the earth's shadow,
|
|